星链-2750 (STARLINK-2750 )

导读 | 豆包AI

STARLINK-2750是美国SpaceX公司星链(Starlink)项目的低轨互联网卫星,于2021年5月26日发射。该卫星归属星链卫星互联网星座,运行于近地轨道,依托星链全球组网架构,为地面偏远地区等场景提供低延迟、高速率的宽带互联网服务,是星链大规模组网中重要组成单元,助力全球互联网覆盖能力建设。

基本信息
目录编号:
48691
目录名称:
STARLINK-2750
国际标识:
2021-044BF
轨道中心:
EARTH
卫星名称:
星链-2750
卫星全名:
星链-2750 (STARLINK-2750 )
卫星状态:
在轨 (已飞行1753 天)
发射日期:
2021-05-26 UTC
国别 :
美国 (US)
星等 :
--
轨道信息
数据来源 国际轨道数据
星历时间: 2026-03-14T12:14:26+0800
14小时前
查看轨道信息
半长轴: 6855.85km
偏心率: 0.0001294
轨道倾角: 53.156°
近地点辐角 97.333°
升交点赤经 54.459°
平近点角 262.782°
近地点: 476.825km
远地点: 478.601km
周期: 94.157分钟
每日圈数: 15.293638
详细信息
固有亮度:
5
最大亮度:
2.5
卫星平台:
Starlink v1.5
覆盖范围:
全球
运营商:
太空探索技术公司
运营商所在国:
美国
制造商(研发单位):
太空探索技术公司
制造商所在国:
美国
使用方式:
暂无
卫星简介
星链(Starlink)计划是由太空探索技术公司(SpaceX)提出的一个巨型低轨卫星互联网星座项目,计划在2019年至2024年间在太空搭建由约1.2万颗卫星组成的“星链”网络,其中1584颗将部署在地球上空550千米处的近地轨道,并从2020年开始工作。该卫星仍在工作。
2D轨道图
3D轨道图
轨道高度分析图
轨道倾角分析图
轨道综合分析图
查看轨道综合分析图